Weather History for KLVK - January, 2013

Change the Weather History Date:

Wednesday, January 2, 2013

  Actual Average Record
Temperature  
Mean Temperature 41 °F 46 °F  
Max Temperature 53 °F 56 °F 69 °F (1959)
Min Temperature 28 °F 37 °F 20 °F (1976)
Degree Days  
Heating Degree Days 24 19  
Month to date heating degree days 48 38  
Since 1 July heating degree days 919 1069  
Cooling Degree Days 0 0  
Month to date cooling degree days 0 0  
Year to date cooling degree days 0 0  
Moisture  
Dew Point 32 °F    
Average Humidity 73    
Maximum Humidity 92    
Minimum Humidity 54    
Precipitation  
Precipitation 0.00 in 0.13 in 1.28 in (1997)
Month to date precipitation 0.00 0.27  
Year to date precipitation 0.00 0.27  
Since 1 July precipitation 8.29 6.08  
Sea Level Pressure  
Sea Level Pressure 30.20 in    
Wind  
Wind Speed 3 mph (ENE)    
Max Wind Speed 14 mph    
Max Gust Speed 18 mph    
Visibility 10 miles    
Events      
T = Trace of Precipitation, MM = Missing Value Source: NWS Daily Summary

Daily Weather History Graph

Daily Weather History Graph

Search for Another Location

Airport or City:

Trip Planner

Search our weather history database for the weather conditions in past years. The results will help you decide how hot, cold, wet, or windy it might be!

Date:

Astronomy

Jan. 02, 2013 Rise Set
Actual Time 7:22 AM PST 5:00 PM PST
Civil Twilight 6:53 AM PST 5:29 PM PST
Nautical Twilight 6:20 AM PST 6:02 PM PST
Astronomical Twilight 5:48 AM PST 6:34 PM PST
Moon 10:31 PM PST (1/2) 10:13 AM PST (1/2)
Length of Visible Light 10h 36m
Length of Day
9h 37m
Waning Gibbous, 74% of the Moon is Illuminated
Jan 2
Waning Gibbous
Jan 4
Last Quarter
Jan 11
New
Jan 18
First Quarter
Jan 26
Full

Hourly Weather History & Observations

Time (PST) Temp. Windchill Dew Point Humidity Pressure Visibility Wind Dir Wind Speed Gust Speed Precip Events Conditions
1:53 AM 32.0 °F - 30.0 °F 92% 30.24 in 9.0 mi Calm Calm - N/A   Clear
2:53 AM 30.0 °F - 28.0 °F 92% 30.23 in 10.0 mi Calm Calm - N/A   Clear
4:53 AM 30.9 °F - 28.0 °F 89% 30.23 in 9.0 mi Calm Calm - N/A   Clear
5:53 AM 30.0 °F - 28.0 °F 92% 30.23 in 10.0 mi Calm Calm - N/A   Clear
6:53 AM 30.0 °F - 28.0 °F 92% 30.23 in 10.0 mi Calm Calm - N/A   Clear
7:53 AM 30.9 °F - 27.0 °F 85% 30.23 in 9.0 mi Calm Calm - N/A   Clear
8:53 AM 35.1 °F - 32.0 °F 89% 30.25 in 8.0 mi Calm Calm - N/A   Clear
9:53 AM 39.9 °F - 34.0 °F 79% 30.25 in 10.0 mi Calm Calm - N/A   Clear
10:53 AM 44.1 °F - 34.0 °F 68% 30.25 in 10.0 mi Calm Calm - N/A   Clear
11:48 AM 51.8 °F - 35.6 °F 54% 30.21 in 10.0 mi NE 10.4 mph - N/A   Clear
11:53 AM 51.1 °F - 35.1 °F 54% 30.22 in 10.0 mi NE 10.4 mph - N/A   Clear
12:53 PM 52.0 °F - 36.0 °F 54% 30.19 in 10.0 mi ENE 10.4 mph 17.3 mph N/A   Clear
1:53 PM 52.0 °F - 36.0 °F 54% 30.18 in 10.0 mi East 10.4 mph - N/A   Clear
2:53 PM 52.0 °F - 35.1 °F 53% 30.17 in 10.0 mi ENE 10.4 mph - N/A   Clear
3:53 PM 51.1 °F - 36.0 °F 56% 30.16 in 10.0 mi ENE 9.2 mph - N/A   Clear
4:53 PM 48.9 °F - 34.0 °F 56% 30.15 in 10.0 mi ENE 6.9 mph - N/A   Clear
5:53 PM 46.0 °F - 34.0 °F 63% 30.16 in 10.0 mi Calm Calm - N/A   Clear
6:53 PM 39.9 °F 36.7 °F 33.1 °F 77% 30.17 in 10.0 mi East 4.6 mph - N/A   Clear
7:53 PM 37.9 °F 35.5 °F 30.9 °F 76% 30.17 in 10.0 mi NE 3.5 mph - N/A   Clear
8:53 PM 37.9 °F - 32.0 °F 79% 30.18 in 10.0 mi Calm Calm - N/A   Clear
9:53 PM 35.1 °F 32.2 °F 30.9 °F 85% 30.19 in 10.0 mi NNE 3.5 mph - N/A   Clear
10:53 PM 36.0 °F - 30.9 °F 82% 30.19 in 10.0 mi Calm Calm - N/A   Clear
11:53 PM 34.0 °F - 30.9 °F 89% 30.18 in 10.0 mi Calm Calm - N/A   Clear